Cleveland, OH

1:25 PM EST on January 23, 2018 (GMT -0500)
Cleveland-Hopkins International

Weather History for KCLE - March, 2012

Change the Weather History Date:

Friday, March 23, 2012

  Actual Average Record
Temperature  
Mean Temperature 68 °F 41 °F  
Max Temperature 81 °F 49 °F 81 °F (2012)
Min Temperature 54 °F 32 °F 5 °F (1885)
Degree Days  
Heating Degree Days 0 24  
Month to date heating degree days 296 643  
Since 1 July heating degree days 3932 4860  
Cooling Degree Days 3 0  
Month to date cooling degree days 24 0  
Year to date cooling degree days 24 0  
Growing Degree Days 18 (Base 50)    
Moisture  
Dew Point 53 °F    
Average Humidity 63    
Maximum Humidity 90    
Minimum Humidity 36    
Precipitation  
Precipitation 0.17 in 0.10 in 0.57 in (1956)
Month to date precipitation 3.63 2.07  
Year to date precipitation 9.10 7.13  
Snow  
Snow 0.00 in 0.30 in - ()
Month to date snowfall 4.7 10.1  
Since 1 July snowfall 38.5 62.3  
Snow Depth 0.00 in    
Sea Level Pressure  
Sea Level Pressure 30.00 in    
Wind  
Wind Speed 5 mph (NE)    
Max Wind Speed 16 mph    
Max Gust Speed 18 mph    
Visibility 9 miles    
Events Rain    
T = Trace of Precipitation, MM = Missing Value Source: NWS Daily Summary

Daily Weather History Graph

Daily Weather History Graph

Search for Another Location

Airport or City:

Trip Planner

Search our weather history database for the weather conditions in past years. The results will help you decide how hot, cold, wet, or windy it might be!

Date:

Astronomy

Mar. 23, 2012 Rise Set
Actual Time 7:24 AM EDT 7:43 PM EDT
Civil Twilight 6:57 AM EDT 8:11 PM EDT
Nautical Twilight 6:24 AM EDT 8:43 PM EDT
Astronomical Twilight 5:51 AM EDT 9:16 PM EDT
Moon 7:31 AM EDT 9:06 PM EDT
Length of Visible Light 13h 13m
Length of Day
12h 18m
New Moon, 1% of the Moon is Illuminated
Mar 23
New Moon
Mar 30
First Quarter
Apr 6
Full
Apr 13
Last Quarter
Apr 21
New

Hourly Weather History & Observations

Time (EDT) Temp. Dew Point Humidity Pressure Visibility Wind Dir Wind Speed Gust Speed Precip Events Conditions
12:51 AM 66.9 °F 51.1 °F 57% 30.09 in 10.0 mi SE 3.5 mph - N/A   Scattered Clouds
1:51 AM 63.0 °F 51.1 °F 65% 30.08 in 10.0 mi Calm Calm - N/A   Scattered Clouds
2:51 AM 60.1 °F 53.1 °F 78% 30.08 in 10.0 mi North 9.2 mph - N/A   Scattered Clouds
3:51 AM 57.9 °F 51.1 °F 78% 30.07 in 9.0 mi Calm Calm - N/A   Scattered Clouds
4:51 AM 57.0 °F 48.9 °F 74% 30.06 in 10.0 mi NNE 3.5 mph - N/A   Mostly Cloudy
5:51 AM 55.9 °F 48.9 °F 77% 30.06 in 9.0 mi Calm Calm - N/A   Scattered Clouds
6:51 AM 57.9 °F 50.0 °F 75% 30.06 in 8.0 mi Calm Calm - N/A   Scattered Clouds
7:51 AM 60.1 °F 51.1 °F 72% 30.07 in 6.0 mi East 5.8 mph - N/A   Haze
8:51 AM 63.0 °F 53.1 °F 70% 30.07 in 5.0 mi NNE 4.6 mph - N/A   Haze
9:51 AM 66.0 °F 54.0 °F 65% 30.07 in 9.0 mi WSW 3.5 mph - N/A   Mostly Cloudy
10:51 AM 71.1 °F 51.1 °F 49% 30.06 in 10.0 mi SSE 3.5 mph - N/A   Overcast
11:51 AM 73.9 °F 51.1 °F 45% 30.05 in 10.0 mi Calm Calm - N/A   Mostly Cloudy
12:51 PM 77.0 °F 52.0 °F 42% 30.02 in 10.0 mi NW 4.6 mph - N/A   Mostly Cloudy
1:51 PM 81.0 °F 51.1 °F 35% 29.99 in 10.0 mi Calm Calm - N/A   Mostly Cloudy
2:51 PM 75.0 °F 54.0 °F 48% 29.95 in 10.0 mi North 10.4 mph - N/A   Scattered Clouds
3:51 PM 73.0 °F 51.1 °F 46% 29.93 in 10.0 mi NNE 13.8 mph - N/A   Scattered Clouds
4:51 PM 73.0 °F 52.0 °F 48% 29.90 in 10.0 mi NNE 10.4 mph - N/A   Mostly Cloudy
5:51 PM 69.1 °F 52.0 °F 54% 29.89 in 10.0 mi NE 13.8 mph - N/A   Overcast
6:51 PM 69.1 °F 52.0 °F 54% 29.90 in 10.0 mi WNW 5.8 mph - N/A   Overcast
7:51 PM 68.0 °F 52.0 °F 56% 29.89 in 10.0 mi Calm Calm - 0.00 in Rain Light Rain
8:51 PM 66.0 °F 55.9 °F 70% 29.91 in 9.0 mi WSW 11.5 mph - 0.00 in Rain Light Rain
9:51 PM 64.0 °F 57.9 °F 80% 29.93 in 8.0 mi South 6.9 mph - 0.02 in Rain Light Rain
10:51 PM 62.1 °F 59.0 °F 90% 29.90 in 6.0 mi ESE 6.9 mph - 0.11 in Rain Light Rain
11:51 PM 62.1 °F 59.0 °F 90% 29.89 in 9.0 mi SSE 6.9 mph - 0.01 in Rain Light Rain